TimePST,TemperatureF,Dew PointF,Humidity,Sea Level PressureIn,VisibilityMPH,Wind Direction,Wind SpeedMPH,Gust SpeedMPH,PrecipitationIn,Events,Conditions,WindDirDegrees,DateUTC
12:30 AM,44.6,42.8,93,30.18,9.0,East,3.5,-,N/A,,Overcast,80,2013-01-08 08:30:00
12:45 AM,44.6,42.8,93,30.17,9.0,Calm,Calm,-,N/A,,Overcast,0,2013-01-08 08:45:00
12:53 AM,44.1,43.0,96,30.18,8.0,Calm,Calm,-,N/A,,Overcast,0,2013-01-08 08:53:00
1:31 AM,44.6,42.8,93,30.15,7.0,ENE,5.8,-,N/A,,Overcast,70,2013-01-08 09:31:00
1:53 AM,45.0,44.1,97,30.16,7.0,East,4.6,-,0.00,,Overcast,90,2013-01-08 09:53:00
2:02 AM,44.6,44.6,100,30.15,7.0,ENE,4.6,-,N/A,,Overcast,70,2013-01-08 10:02:00
2:53 AM,45.0,41.0,86,30.15,6.0,South,4.6,-,0.02,Rain,Light Rain,180,2013-01-08 10:53:00
3:53 AM,44.1,42.1,93,30.12,9.0,NE,5.8,-,0.01,Rain,Light Rain,50,2013-01-08 11:53:00
4:53 AM,44.1,43.0,96,30.09,4.0,NE,9.2,-,0.04,Rain,Light Rain,50,2013-01-08 12:53:00
5:08 AM,44.6,42.8,93,30.07,5.0,NE,9.2,-,0.02,Rain,Light Rain,50,2013-01-08 13:08:00
5:53 AM,44.1,42.1,93,30.04,6.0,ENE,10.4,-,0.04,Rain,Light Rain,60,2013-01-08 13:53:00
6:08 AM,44.6,42.8,93,30.02,6.0,ENE,11.5,-,0.01,Rain,Light Rain,60,2013-01-08 14:08:00
6:43 AM,44.6,42.8,93,30.01,4.0,East,9.2,17.3,0.03,Rain,Light Rain,90,2013-01-08 14:43:00
6:49 AM,44.6,42.8,93,30.01,4.0,ENE,11.5,-,0.03,Rain,Light Rain,60,2013-01-08 14:49:00
6:53 AM,44.6,42.8,93,30.00,3.0,ENE,12.7,19.6,N/A,Rain,Light Rain,60,2013-01-08 14:53:00
7:09 AM,44.6,42.8,93,29.99,2.5,ENE,18.4,-,N/A,Rain,Light Rain,70,2013-01-08 15:09:00
7:12 AM,42.8,42.8,100,29.99,3.0,ENE,16.1,-,0.01,Rain,Light Rain,70,2013-01-08 15:12:00
7:25 AM,42.8,42.8,100,29.99,2.5,NE,10.4,-,0.02,Rain,Light Rain,50,2013-01-08 15:25:00
7:36 AM,42.8,42.8,100,29.99,3.0,ENE,13.8,-,0.03,Rain,Light Rain,60,2013-01-08 15:36:00
7:42 AM,42.8,42.8,100,29.99,2.5,ENE,12.7,-,0.03,Rain,Light Rain,70,2013-01-08 15:42:00
7:45 AM,42.8,42.8,100,29.99,2.5,ENE,10.4,-,0.03,Rain,Light Rain,60,2013-01-08 15:45:00
7:53 AM,43.0,42.1,97,30.00,2.5,ENE,10.4,-,0.04,Rain,Light Rain,70,2013-01-08 15:53:00
8:11 AM,42.8,42.8,100,29.98,2.5,ENE,11.5,-,0.02,Rain,Light Rain,70,2013-01-08 16:11:00
8:33 AM,42.8,42.8,100,29.98,1.8,ENE,11.5,-,0.04,Rain,Light Rain,70,2013-01-08 16:33:00
8:53 AM,44.1,43.0,96,29.99,1.0,ENE,10.4,-,0.08,Rain,Light Rain,70,2013-01-08 16:53:00
9:30 AM,44.6,42.8,93,29.98,3.0,ENE,9.2,-,0.06,Rain,Light Rain,60,2013-01-08 17:30:00
9:53 AM,45.0,45.0,100,29.99,3.0,SE,6.9,-,0.09,Rain,Light Rain,140,2013-01-08 17:53:00
9:59 AM,48.2,48.2,100,29.98,1.8,South,15.0,24.2,0.02,Rain,Light Rain,190,2013-01-08 17:59:00
10:14 AM,48.2,48.2,100,29.97,2.0,South,18.4,24.2,0.02,Rain,Light Rain,190,2013-01-08 18:14:00
10:23 AM,48.2,48.2,100,29.97,1.5,South,19.6,-,0.03,Rain,Light Rain,190,2013-01-08 18:23:00
10:53 AM,48.9,48.9,100,29.97,2.0,South,19.6,27.6,0.08,,Overcast,190,2013-01-08 18:53:00
11:11 AM,50.0,48.2,94,29.95,3.0,South,21.9,31.1,N/A,,Overcast,190,2013-01-08 19:11:00
11:18 AM,50.0,48.2,94,29.95,2.5,South,24.2,31.1,N/A,,Overcast,190,2013-01-08 19:18:00
11:31 AM,50.0,48.2,94,29.94,3.0,South,23.0,-,N/A,,Overcast,190,2013-01-08 19:31:00
11:53 AM,50.0,48.9,96,29.95,4.0,South,21.9,33.4,N/A,,Overcast,190,2013-01-08 19:53:00
12:31 PM,50.0,48.2,94,29.93,2.0,South,21.9,28.8,0.04,,Overcast,190,2013-01-08 20:31:00
12:50 PM,50.0,48.2,94,29.92,3.0,South,23.0,-,0.04,,Overcast,190,2013-01-08 20:50:00
12:53 PM,50.0,48.9,96,29.94,4.0,South,24.2,31.1,0.05,Rain,Light Rain,190,2013-01-08 20:53:00
1:49 PM,50.0,48.2,94,29.91,2.0,South,21.9,34.5,0.04,,Overcast,190,2013-01-08 21:49:00
1:53 PM,50.0,48.9,96,29.92,2.0,South,24.2,33.4,0.04,,Overcast,190,2013-01-08 21:53:00
2:21 PM,50.0,48.2,94,29.90,4.0,South,25.3,35.7,0.01,,Overcast,180,2013-01-08 22:21:00
2:53 PM,50.0,48.9,96,29.90,5.0,South,27.6,34.5,0.03,,Overcast,190,2013-01-08 22:53:00
3:50 PM,50.0,48.2,94,29.87,2.0,South,26.5,36.8,0.03,,Overcast,190,2013-01-08 23:50:00
3:53 PM,50.0,48.9,96,29.89,2.0,South,25.3,36.8,0.03,,Overcast,190,2013-01-08 23:53:00
4:23 PM,50.0,48.2,94,29.86,1.5,South,31.1,38.0,0.02,,Overcast,180,2013-01-09 00:23:00
4:40 PM,51.8,48.2,88,29.86,2.5,South,27.6,41.4,0.03,,Overcast,190,2013-01-09 00:40:00
4:53 PM,51.1,48.9,92,29.87,2.0,South,33.4,46.0,0.05,,Overcast,190,2013-01-09 00:53:00
5:14 PM,51.8,48.2,88,29.85,4.0,South,35.7,43.7,N/A,,Overcast,180,2013-01-09 01:14:00
5:25 PM,50.0,48.2,94,29.85,2.5,South,27.6,40.3,0.03,,Overcast,180,2013-01-09 01:25:00
5:36 PM,51.8,48.2,88,29.84,6.0,South,25.3,41.4,0.04,,Overcast,180,2013-01-09 01:36:00
5:53 PM,51.1,48.9,92,29.85,6.0,South,31.1,46.0,0.04,,Overcast,180,2013-01-09 01:53:00
6:24 PM,51.8,48.2,88,29.83,8.0,South,35.7,50.6,N/A,,Overcast,180,2013-01-09 02:24:00
6:51 PM,50.0,48.2,94,29.82,2.5,South,33.4,46.0,0.01,,Overcast,180,2013-01-09 02:51:00
6:53 PM,50.0,48.0,93,29.84,3.0,South,32.2,46.0,0.01,,Overcast,180,2013-01-09 02:53:00
7:09 PM,50.0,48.2,94,29.82,4.0,South,32.2,43.7,N/A,,Overcast,180,2013-01-09 03:09:00
7:53 PM,50.0,48.0,93,29.83,2.0,South,32.2,46.0,0.01,,Overcast,170,2013-01-09 03:53:00
8:20 PM,50.0,48.2,94,29.81,2.0,South,29.9,42.6,0.03,,Overcast,180,2013-01-09 04:20:00
8:37 PM,50.0,48.2,94,29.80,2.0,South,27.6,35.7,0.05,,Overcast,180,2013-01-09 04:37:00
8:53 PM,50.0,48.2,94,29.80,2.0,South,27.6,39.1,N/A,,Overcast,180,2013-01-09 04:53:00
9:06 PM,50.0,48.2,94,29.80,1.8,South,26.5,39.1,0.02,,Overcast,180,2013-01-09 05:06:00
9:23 PM,50.0,48.2,94,29.80,2.0,South,32.2,41.4,0.07,,Overcast,190,2013-01-09 05:23:00
9:53 PM,50.0,48.0,93,29.80,3.0,South,26.5,40.3,0.11,,Overcast,180,2013-01-09 05:53:00
10:03 PM,50.0,48.2,94,29.79,2.5,South,29.9,40.3,0.02,,Overcast,180,2013-01-09 06:03:00
10:10 PM,50.0,48.2,94,29.78,3.0,South,33.4,43.7,0.03,,Overcast,180,2013-01-09 06:10:00
10:53 PM,50.0,46.9,89,29.79,2.5,South,32.2,46.0,0.09,,Overcast,180,2013-01-09 06:53:00
11:10 PM,50.0,46.4,87,29.78,3.0,South,28.8,41.4,0.03,,Overcast,180,2013-01-09 07:10:00
11:36 PM,48.2,46.4,93,29.78,2.0,South,26.5,36.8,0.09,,Overcast,180,2013-01-09 07:36:00
11:51 PM,48.2,46.4,93,29.78,4.0,South,28.8,39.1,0.13,,Overcast,190,2013-01-09 07:51:00
11:53 PM,48.9,46.9,93,29.79,4.0,SSW,26.5,39.1,0.13,,Overcast,210,2013-01-09 07:53:00
11:59 PM,48.2,46.4,93,29.79,2.0,SW,20.7,39.1,0.08,Rain,Heavy Rain,220,2013-01-09 07:59:00